YZ-1 R/B, 44866

Orbit data source: Space-Track

YZ-1 R/B, 44866 is space debris originally from a launch on Mon, 16 Dec 2019 UTC launched from the Xichang Space Center, China (XSC). Debris objects in space refer to the collection of defunct objects orbiting the Earth. Examples of debris include non-operational satellites, rocket bodies, and fragments generated from explosions, collisions, or faulty payload assembly.

Loading next visibility...
Identifier
44866, 2019-090C
Orbit
Active
Country
Flag of CNCN / PRC
Related business
Manufacturer
CALT
Mission
Spacecraft
Bus & Motor
YZ-1, Unknown motor
Mass
~2,075 kg wet, ~2,075 kg dry
Launch date (UTC)
2019-12-16 (6 years ago)
Launch vehicle
Unknown
Launch site
Xichang Space Center, China (XSC)
Object type
Payload
Rocket body
Debris
Shape & HBR
Double Cone, 2.0 m
Radar Cross Section
5.890 m², Large (>1 m²)

Expand to show TLE details & history
Last TLE update: 4 days ago

TLE from 4 days ago
0 YZ-1 R/B
1 44866U 19090C   26033.20010815 -.00000023  00000-0  00000-0 0  9994
2 44866  56.2607  73.6108 0070391  37.2661 323.2984  1.78364122 39968
Epoch: 2026-02-02T04:48Z
TLE epoch observation values (Epoch: 2026-02-02T04:48:09.344Z)
Latitude
-0.00001°
Longitude
-130.8056°
Altitude
22,181.671 km
Speed
3.746 km/s
True Right ascension
04h 54m 31s
True Declination
0° 00' 00"
Sunlit
Object was in daylight at epoch
Visualization orbit readout
Latitude
Unknown
Longitude
Unknown
Altitude
Unknown
Speed
Unknown
Apparent Right ascension
Unknown
Apparent Declination
Unknown
Sunlit
N/A
Visualization observer readout
Local Sidereal Time
17:43:10
Azimuth
Unknown
Elevation
Unknown
Doppler factor
Unknown
Orbital elements
Apogee altitude
22,544.812 km
Perigee altitude
22,140.475 km
Semi-major axis
28,720.781 km
Eccentricity
0.00704
Inclination
56.2607°
RAAN
73.6108°
Arg. of periapsis
37.2661°
True anomaly
322.81291°
Mean anomaly
323.2984°
Eccentric anomaly
323.056°
Mean motion
0.44591 °/min
Orbital period
807.33 mins
BSTAR
0
Loading maneuver chart data...
Computing Atmospheric mass density...
Loading historical data...
Loading historical data...
Loading historical data...
Loading historical data...
Loading historical data...
Loading historical data...
Loading historical data...
Other satellites on launch #90 in the year 2019 (2019-12-16 UTC)

Documentation

Showing up to 5 results
|